Temp
-9 -9 -9 -9 -9 -9 -9 -9 -9 -9 -9 -9 -9 -9 -9 -9 -9 -10 -10 -10 -10 -11 -11 -11 -11 -11 -11 -11 -12 -12 -12 -12 -12 -12 -12 -12 -12 -12 -12 -11 -11 -11 -11 -10 -11 -10 -9 -9 -9
-9 -9 -9 -9 -9 -9 -9 -9 -9 -9 -9 -9 -9 -9 -9 -9 -10 -10 -10 -11 -11 -11 -11 -11 -11 -12 -12 -12 -12 -12 -12 -12 -12 -12 -12 -12 -13 -13 -12 -12 -11 -12 -12 -11 -11 -11 -10 -9 -10
-9 -9 -9 -9 -9 -9 -9 -9 -9 -9 -9 -9 -9 -9 -9 -10 -10 -10 -11 -11 -11 -11 -11 -12 -12 -12 -12 -12 -12 -12 -13 -13 -13 -13 -13 -13 -13 -13 -13 -12 -12 -12 -12 -11 -11 -11 -11 -9 -8
-9 -9 -9 -9 -9 -9 -9 -9 -9 -9 -9 -9 -9 -9 -9 -9 -9 -10 -10 -10 -10 -11 -11 -12 -12 -12 -12 -13 -13 -13 -13 -13 -13 -13 -13 -13 -13 -13 -14 -13 -13 -12 -12 -12 -11 -11 -11 -10 -9
-9 -9 -9 -9 -9 -9 -9 -9 -9 -9 -9 -9 -9 -9 -9 -9 -9 -10 -10 -10 -11 -11 -11 -12 -12 -12 -13 -13 -13 -13 -13 -13 -13 -13 -13 -13 -13 -13 -14 -14 -13 -13 -12 -12 -12 -11 -11 -11 -10
-9 -9 -9 -9 -9 -9 -9 -9 -9 -9 -9 -9 -10 -9 -9 -9 -9 -10 -10 -10 -11 -11 -12 -12 -13 -13 -13 -13 -13 -14 -14 -13 -14 -13 -13 -13 -14 -14 -14 -14 -13 -13 -12 -13 -12 -12 -11 -11 -11
-9 -9 -9 -9 -9 -9 -9 -9 -9 -9 -9 -10 -10 -9 -9 -9 -10 -10 -10 -10 -10 -11 -12 -12 -13 -13 -13 -14 -14 -14 -14 -14 -14 -14 -13 -13 -14 -14 -14 -14 -14 -13 -13 -13 -13 -13 -11 -12 -11
-9 -9 -9 -9 -9 -9 -9 -9 -9 -9 -10 -10 -10 -10 -9 -9 -10 -10 -10 -10 -10 -11 -12 -12 -13 -13 -13 -14 -14 -14 -14 -14 -14 -14 -14 -14 -14 -14 -14 -14 -14 -14 -14 -13 -13 -13 -12 -11 -11
-9 -9 -9 -9 -10 -9 -9 -9 -10 -10 -10 -10 -10 -10 -9 -10 -10 -10 -10 -10 -11 -11 -11 -11 -12 -13 -14 -14 -14 -14 -15 -15 -14 -14 -14 -14 -14 -14 -15 -14 -14 -14 -15 -14 -13 -13 -12 -11 -11
-9 -9 -9 -10 -10 -10 -10 -9 -10 -10 -10 -10 -10 -10 -9 -10 -10 -10 -10 -10 -10 -10 -10 -11 -12 -13 -14 -15 -15 -15 -15 -14 -14 -15 -15 -15 -15 -15 -14 -15 -14 -14 -15 -15 -14 -13 -13 -12 -12
-9 -9 -10 -10 -10 -10 -10 -10 -10 -10 -10 -10 -10 -10 -9 -10 -10 -10 -10 -10 -10 -10 -10 -11 -12 -13 -14 -14 -15 -15 -15 -15 -15 -15 -15 -15 -15 -15 -14 -15 -15 -15 -15 -15 -15 -13 -13 -12 -11
-10 -10 -10 -10 -10 -10 -10 -10 -10 -10 -10 -10 -10 -10 -10 -10 -10 -10 -11 -10 -10 -10 -10 -11 -12 -13 -13 -14 -15 -15 -15 -15 -15 -15 -15 -15 -15 -15 -15 -15 -15 -15 -16 -17 -17 -15 -14 -13 -12
-10 -10 -10 -10 -10 -10 -10 -10 -10 -10 -10 -10 -10 -10 -10 -10 -10 -11 -10 -10 -10 -10 -11 -11 -12 -13 -13 -13 -14 -14 -14 -14 -15 -14 -14 -15 -15 -15 -15 -15 -15 -15 -16 -17 -17 -15 -13 -13 -12
-10 -10 -10 -10 -10 -10 -10 -10 -10 -10 -10 -10 -10 -10 -10 -10 -10 -11 -10 -10 -10 -10 -11 -11 -11 -13 -13 -13 -14 -14 -14 -14 -14 -14 -14 -15 -15 -15 -15 -16 -16 -16 -17 -17 -17 -14 -13 -13 -13
-10 -10 -10 -10 -10 -10 -10 -10 -10 -10 -10 -10 -10 -10 -10 -10 -10 -10 -10 -10 -10 -10 -11 -11 -11 -12 -13 -13 -14 -14 -14 -14 -14 -15 -15 -15 -15 -15 -15 -15 -16 -16 -17 -17 -17 -14 -12 -13 -12
-10 -10 -10 -11 -11 -11 -10 -10 -10 -10 -10 -10 -10 -10 -10 -10 -10 -11 -10 -10 -10 -11 -11 -11 -12 -12 -13 -14 -14 -14 -15 -15 -15 -15 -15 -15 -15 -15 -15 -15 -16 -16 -16 -17 -17 -15 -12 -13 -13
-11 -11 -11 -11 -11 -11 -10 -10 -10 -10 -11 -11 -10 -10 -10 -10 -10 -11 -11 -11 -11 -11 -11 -11 -12 -12 -13 -14 -15 -15 -15 -15 -15 -16 -16 -16 -16 -15 -15 -16 -16 -16 -17 -18 -18 -16 -13 -13 -13
-11 -11 -11 -11 -11 -11 -10 -10 -10 -10 -10 -11 -11 -11 -10 -10 -11 -11 -11 -11 -11 -11 -12 -12 -12 -13 -13 -14 -15 -16 -16 -16 -16 -16 -16 -16 -16 -16 -16 -16 -16 -16 -17 -17 -18 -16 -14 -13 -13
-11 -11 -11 -11 -11 -11 -11 -10 -10 -10 -10 -10 -11 -11 -11 -11 -11 -11 -11 -12 -12 -12 -12 -13 -13 -13 -14 -15 -15 -16 -16 -16 -16 -16 -16 -16 -16 -16 -16 -17 -16 -16 -17 -17 -18 -17 -16 -14 -14
-11 -11 -11 -11 -11 -11 -10 -10 -10 -10 -10 -11 -11 -11 -12 -11 -11 -11 -12 -12 -12 -13 -13 -14 -14 -14 -15 -15 -15 -16 -16 -17 -17 -17 -17 -16 -16 -17 -17 -17 -17 -16 -17 -17 -18 -18 -17 -15 -15
-11 -11 -11 -10 -11 -11 -10 -10 -10 -11 -11 -11 -11 -12 -12 -12 -12 -11 -12 -13 -13 -13 -14 -14 -14 -14 -15 -16 -16 -16 -16 -17 -17 -17 -17 -17 -17 -17 -17 -18 -18 -17 -17 -17 -17 -18 -17 -16 -14
-10 -10 -10 -10 -10 -10 -11 -10 -11 -11 -11 -11 -12 -12 -12 -12 -12 -12 -13 -13 -13 -14 -14 -14 -14 -15 -16 -16 -16 -16 -16 -16 -17 -17 -18 -17 -17 -18 -18 -18 -18 -18 -17 -17 -17 -17 -18 -17 -16
-10 -10 -10 -10 -10 -10 -11 -11 -11 -11 -11 -11 -12 -11 -12 -12 -12 -12 -13 -13 -13 -14 -14 -14 -15 -15 -16 -16 -17 -17 -17 -17 -17 -18 -18 -18 -19 -19 -19 -19 -19 -19 -19 -18 -17 -18 -18 -17 -17
-11 -11 -10 -10 -10 -10 -11 -11 -11 -11 -12 -12 -12 -12 -12 -12 -12 -13 -13 -13 -14 -14 -15 -15 -16 -16 -17 -17 -17 -17 -17 -18 -18 -18 -19 -18 -20 -20 -20 -20 -20 -20 -19 -19 -18 -18 -18 -18 -16
-11 -10 -10 -10 -10 -10 -11 -11 -11 -11 -12 -12 -12 -12 -12 -12 -12 -13 -14 -14 -14 -15 -15 -16 -16 -17 -17 -17 -17 -18 -18 -18 -19 -19 -19 -20 -20 -21 -21 -21 -21 -20 -20 -19 -19 -18 -18 -18 -17
-11 -11 -10 -10 -10 -10 -11 -11 -11 -12 -12 -12 -12 -12 -12 -12 -13 -14 -14 -14 -15 -15 -16 -16 -17 -17 -17 -17 -18 -18 -18 -19 -19 -20 -20 -21 -21 -21 -20 -20 -20 -20 -20 -20 -19 -18 -18 -18 -18
-11 -11 -11 -11 -11 -10 -10 -10 -11 -12 -12 -13 -13 -12 -12 -13 -13 -14 -14 -15 -15 -16 -17 -17 -17 -17 -18 -18 -18 -19 -19 -19 -20 -20 -21 -21 -21 -21 -21 -20 -20 -20 -20 -20 -19 -19 -18 -18 -19
-12 -12 -11 -11 -11 -11 -10 -11 -12 -12 -13 -13 -13 -13 -13 -14 -15 -15 -15 -16 -16 -17 -18 -18 -18 -18 -18 -18 -18 -19 -19 -20 -20 -20 -21 -22 -21 -21 -21 -21 -21 -20 -20 -20 -19 -19 -19 -19 -19
-12 -12 -12 -12 -12 -12 -11 -11 -13 -13 -13 -13 -14 -14 -14 -15 -15 -16 -16 -16 -17 -17 -18 -18 -18 -18 -19 -19 -19 -19 -20 -20 -20 -21 -22 -22 -22 -21 -22 -21 -21 -20 -20 -20 -19 -19 -19 -19 -19
-12 -13 -13 -13 -12 -12 -12 -10 -13 -14 -14 -14 -14 -14 -15 -16 -16 -16 -17 -17 -17 -18 -18 -18 -18 -19 -19 -19 -19 -19 -20 -20 -21 -21 -22 -22 -22 -22 -22 -22 -22 -21 -20 -20 -20 -19 -19 -19 -19
Height
5855 5854 5854 5854 5856 5854 5852 5852 5851 5850 5849 5847 5846 5844 5842 5840 5839 5840 5835 5832 5830 5829 5827 5824 5822 5819 5817 5814 5811 5808 5805 5802 5800 5798 5796 5794 5792 5788 5787 5788 5789 5794 5797 5800 5801 5803 5805 5807 5809
5855 5854 5854 5853 5853 5851 5851 5850 5849 5848 5847 5845 5843 5842 5841 5839 5836 5834 5832 5829 5826 5825 5823 5820 5816 5814 5812 5808 5805 5802 5799 5796 5793 5791 5789 5788 5785 5783 5780 5779 5780 5785 5788 5793 5796 5799 5800 5802 5804
5855 5854 5854 5852 5851 5850 5849 5848 5847 5846 5845 5843 5842 5841 5839 5837 5835 5832 5829 5827 5824 5821 5817 5814 5810 5808 5805 5802 5799 5796 5792 5790 5787 5785 5783 5781 5779 5777 5773 5772 5771 5776 5780 5785 5789 5793 5795 5797 5799
5854 5854 5853 5852 5850 5849 5848 5847 5846 5845 5843 5842 5841 5839 5837 5835 5832 5829 5827 5824 5821 5817 5814 5811 5807 5804 5800 5796 5793 5790 5786 5784 5781 5779 5776 5773 5771 5770 5766 5765 5764 5767 5771 5776 5781 5786 5789 5791 5789
5852 5852 5851 5850 5849 5848 5847 5846 5844 5843 5842 5840 5838 5836 5834 5832 5830 5827 5824 5821 5817 5813 5810 5807 5802 5798 5794 5791 5787 5784 5780 5777 5775 5773 5770 5767 5765 5762 5760 5757 5757 5757 5762 5767 5773 5778 5782 5784 5786
5851 5850 5850 5849 5848 5847 5846 5844 5843 5842 5840 5838 5835 5833 5832 5830 5827 5824 5821 5817 5813 5808 5804 5800 5797 5792 5789 5785 5782 5779 5775 5772 5769 5766 5764 5760 5757 5755 5753 5750 5748 5748 5753 5757 5763 5770 5774 5777 5780
5849 5848 5847 5846 5846 5845 5844 5842 5841 5840 5838 5836 5833 5830 5829 5826 5823 5820 5816 5812 5808 5803 5799 5794 5790 5786 5782 5779 5776 5773 5769 5766 5764 5761 5758 5755 5751 5747 5745 5742 5739 5738 5741 5747 5753 5759 5767 5769 5776
5846 5846 5845 5844 5843 5843 5841 5840 5839 5838 5835 5833 5829 5827 5825 5822 5818 5816 5812 5808 5803 5799 5794 5789 5785 5780 5777 5773 5770 5767 5763 5760 5757 5753 5751 5748 5746 5741 5737 5734 5731 5728 5730 5736 5743 5749 5757 5762 5768
5843 5843 5842 5841 5840 5840 5839 5837 5836 5835 5833 5830 5827 5823 5821 5818 5814 5811 5807 5803 5798 5794 5789 5784 5780 5776 5772 5769 5765 5761 5757 5753 5749 5746 5743 5741 5738 5735 5730 5726 5723 5718 5720 5724 5731 5739 5746 5753 5759
5840 5839 5838 5838 5837 5837 5836 5834 5833 5832 5829 5826 5823 5820 5817 5814 5811 5807 5804 5800 5795 5790 5784 5779 5773 5769 5765 5762 5759 5754 5750 5746 5743 5740 5737 5734 5730 5726 5723 5720 5716 5712 5710 5714 5719 5729 5736 5743 5749
5836 5835 5834 5834 5834 5833 5832 5830 5829 5828 5825 5822 5820 5816 5813 5809 5806 5803 5799 5796 5791 5785 5780 5774 5769 5764 5760 5755 5751 5748 5745 5740 5736 5732 5729 5725 5722 5718 5715 5712 5709 5706 5704 5706 5708 5715 5723 5731 5739
5832 5831 5830 5830 5830 5829 5827 5827 5825 5823 5821 5818 5815 5811 5808 5804 5801 5798 5794 5790 5786 5781 5774 5770 5764 5758 5755 5750 5746 5741 5737 5733 5728 5724 5721 5717 5713 5710 5707 5704 5701 5699 5698 5698 5698 5701 5709 5717 5728
5828 5827 5826 5826 5825 5824 5823 5823 5820 5818 5816 5814 5810 5806 5803 5800 5797 5793 5788 5784 5780 5775 5770 5766 5759 5753 5749 5744 5739 5733 5729 5725 5722 5717 5713 5709 5705 5701 5697 5694 5690 5688 5686 5683 5681 5683 5691 5704 5714
5824 5823 5822 5821 5821 5820 5818 5817 5815 5814 5811 5808 5806 5802 5799 5795 5791 5787 5783 5780 5775 5770 5766 5760 5754 5747 5742 5737 5731 5726 5722 5718 5714 5710 5705 5702 5697 5693 5688 5684 5680 5675 5671 5666 5663 5668 5680 5692 5704
5819 5818 5817 5816 5815 5814 5813 5811 5810 5809 5806 5803 5801 5798 5794 5790 5786 5782 5778 5774 5769 5763 5760 5754 5748 5741 5736 5730 5724 5719 5715 5710 5705 5701 5697 5693 5689 5685 5680 5675 5670 5664 5658 5652 5647 5652 5667 5682 5696
5814 5813 5812 5811 5810 5810 5810 5805 5805 5804 5801 5798 5795 5792 5789 5785 5780 5776 5772 5768 5762 5757 5753 5748 5742 5734 5728 5722 5717 5712 5707 5702 5698 5692 5687 5683 5679 5675 5670 5665 5660 5653 5647 5641 5636 5639 5653 5671 5682
5810 5809 5808 5807 5805 5805 5804 5800 5800 5799 5796 5793 5789 5786 5782 5779 5774 5770 5765 5760 5755 5750 5744 5738 5733 5727 5719 5714 5708 5703 5698 5693 5688 5683 5677 5672 5668 5664 5659 5654 5649 5644 5638 5633 5627 5630 5641 5659 5674
5806 5805 5804 5802 5802 5799 5798 5795 5794 5792 5789 5786 5783 5779 5776 5773 5768 5763 5758 5754 5749 5743 5737 5731 5725 5720 5713 5707 5701 5695 5689 5684 5679 5673 5667 5661 5658 5653 5649 5645 5641 5636 5631 5626 5622 5623 5631 5650 5664
5803 5802 5800 5798 5797 5796 5793 5791 5789 5787 5783 5780 5777 5774 5770 5766 5762 5757 5752 5748 5742 5735 5729 5723 5717 5711 5706 5700 5694 5688 5681 5674 5668 5662 5656 5650 5645 5641 5636 5633 5631 5627 5623 5618 5617 5616 5624 5638 5649
5800 5798 5796 5795 5792 5791 5788 5787 5784 5782 5778 5774 5771 5767 5763 5760 5756 5751 5745 5740 5734 5727 5721 5714 5708 5701 5696 5691 5685 5679 5673 5665 5656 5649 5644 5638 5633 5628 5624 5619 5617 5617 5615 5612 5610 5609 5616 5626 5638
5795 5793 5791 5789 5787 5785 5783 5781 5778 5775 5771 5767 5765 5760 5756 5753 5750 5743 5736 5730 5724 5718 5711 5705 5699 5692 5688 5683 5677 5670 5663 5657 5649 5640 5634 5627 5620 5614 5610 5606 5604 5604 5604 5604 5603 5602 5609 5618 5629
5788 5786 5784 5781 5779 5778 5777 5774 5771 5768 5764 5761 5758 5754 5750 5747 5741 5735 5729 5721 5716 5711 5703 5695 5689 5683 5677 5672 5666 5660 5653 5648 5639 5632 5623 5614 5606 5600 5594 5590 5590 5590 5591 5593 5594 5595 5598 5608 5617
5782 5778 5776 5774 5773 5771 5770 5767 5766 5760 5758 5755 5751 5746 5742 5738 5732 5726 5719 5711 5706 5700 5693 5686 5680 5673 5667 5661 5655 5649 5642 5636 5630 5621 5613 5602 5591 5583 5578 5575 5574 5576 5578 5580 5582 5586 5588 5596 5606
5774 5772 5769 5767 5766 5764 5761 5759 5758 5754 5751 5747 5742 5737 5734 5728 5722 5715 5707 5699 5694 5688 5681 5675 5669 5662 5656 5650 5643 5637 5630 5624 5618 5610 5600 5589 5578 5568 5562 5560 5559 5561 5565 5568 5571 5574 5579 5584 5597
5768 5764 5761 5760 5757 5755 5753 5751 5750 5746 5742 5737 5733 5727 5722 5717 5711 5705 5697 5690 5683 5676 5670 5664 5657 5651 5644 5638 5631 5624 5618 5611 5603 5595 5585 5573 5564 5554 5548 5547 5546 5547 5552 5556 5560 5563 5568 5572 5581
5762 5759 5756 5751 5749 5747 5744 5742 5739 5738 5733 5727 5722 5717 5711 5706 5700 5693 5686 5680 5672 5665 5658 5652 5646 5639 5633 5627 5619 5612 5605 5598 5588 5578 5568 5557 5548 5541 5536 5533 5534 5535 5539 5545 5548 5552 5557 5562 5568
5756 5753 5750 5745 5742 5739 5736 5733 5731 5728 5722 5717 5710 5706 5699 5693 5687 5679 5672 5666 5659 5653 5646 5641 5635 5628 5621 5615 5608 5599 5593 5584 5574 5564 5553 5543 5535 5529 5523 5520 5521 5523 5528 5532 5538 5542 5547 5553 5556
5750 5747 5743 5738 5734 5730 5727 5722 5723 5719 5712 5706 5699 5694 5688 5681 5674 5666 5659 5653 5646 5639 5634 5628 5622 5616 5609 5602 5595 5587 5580 5570 5560 5550 5540 5530 5522 5517 5512 5509 5510 5512 5517 5522 5527 5531 5535 5542 5548
5745 5741 5737 5733 5728 5723 5719 5713 5714 5707 5701 5693 5688 5683 5677 5669 5662 5653 5647 5640 5634 5627 5621 5615 5610 5603 5595 5588 5582 5574 5566 5557 5546 5537 5527 5517 5510 5505 5501 5498 5499 5502 5507 5512 5518 5522 5524 5530 5537
5737 5735 5730 5725 5721 5715 5710 5707 5703 5697 5691 5683 5677 5671 5665 5655 5648 5640 5634 5627 5621 5615 5608 5602 5596 5589 5582 5575 5568 5561 5552 5544 5534 5523 5513 5504 5499 5494 5492 5489 5490 5492 5497 5502 5508 5512 5515 5519 5527
Wind_Speed
4 4 5 6 4 3 2 4 6 8 10 10 11 13 16 18 20 20 23 25 27 27 29 31 32 32 31 31 31 33 34 34 33 34 34 33 34 37 36 36 39 37 38 34 31 28 25 29 28
3 3 5 6 5 4 4 5 7 9 10 10 12 15 16 19 21 23 25 28 30 31 33 34 35 34 33 32 34 34 36 35 31 34 33 33 32 35 33 33 41 37 38 39 34 29 28 27 28
3 4 6 5 5 4 5 6 8 10 10 11 14 16 17 18 21 23 25 29 30 32 34 34 33 31 31 32 34 35 37 36 33 34 34 34 33 31 29 30 39 43 40 40 39 33 28 29 33
5 6 7 6 6 6 7 9 9 10 10 11 14 15 15 17 20 24 27 29 31 33 33 35 33 32 32 33 33 35 37 35 33 32 35 34 36 32 31 28 33 44 46 41 44 35 33 31 30
7 9 9 8 7 7 9 10 10 9 10 14 15 15 15 17 21 24 26 29 30 33 35 34 35 34 32 30 31 35 38 35 33 30 33 34 35 31 32 32 29 44 52 47 44 43 36 34 33
10 10 11 9 9 9 10 10 9 8 10 14 17 16 16 19 22 25 28 32 34 36 38 38 35 34 32 31 32 35 35 33 33 31 29 31 33 31 33 35 32 39 54 53 48 46 42 40 38
12 13 13 12 11 11 11 10 8 10 12 15 18 17 18 21 24 26 29 31 34 38 41 42 40 33 33 31 33 33 32 33 33 31 30 32 33 34 35 36 37 34 53 60 56 47 47 43 37
14 14 15 14 13 13 12 11 11 12 14 18 19 18 20 22 24 26 29 32 36 39 42 45 44 34 31 31 30 30 31 32 32 32 31 29 32 36 34 36 41 39 46 62 60 57 52 47 41
16 16 16 16 16 15 14 14 13 13 16 21 22 20 21 23 26 28 30 33 37 41 42 46 44 35 29 30 31 31 31 32 32 30 32 31 34 34 34 35 40 40 41 59 66 61 55 53 46
17 18 18 18 17 16 15 16 16 15 18 22 23 21 22 25 27 28 27 33 37 39 42 48 47 41 32 31 33 33 31 32 34 32 31 33 31 34 34 34 37 37 41 51 67 65 61 57 50
19 19 19 18 17 17 16 17 18 18 20 23 25 23 23 27 29 29 30 30 35 38 41 46 49 44 36 35 35 33 32 33 31 29 31 33 33 32 34 35 34 35 37 45 63 70 65 63 56
19 19 18 18 18 18 19 18 19 20 22 24 25 24 24 29 30 31 33 36 35 38 40 44 49 44 42 39 36 32 33 32 31 32 33 34 36 32 34 35 36 34 37 44 51 71 77 68 65
19 20 20 18 19 20 21 19 22 22 24 24 25 24 26 30 32 32 32 36 41 40 42 46 49 46 43 43 41 34 32 32 32 31 33 33 33 32 35 36 37 39 36 39 57 76 81 74 71
21 21 21 22 21 21 22 21 23 23 23 24 23 24 27 30 33 34 32 36 40 43 42 46 50 50 47 45 43 39 35 33 33 33 34 34 35 34 36 40 39 42 37 40 48 73 85 79 74
23 23 23 22 21 21 21 24 23 23 23 24 24 25 26 29 34 36 36 38 43 48 44 42 45 51 51 48 44 41 38 36 34 35 37 38 37 36 36 40 42 42 39 42 41 67 85 80 66
19 20 20 20 20 19 20 24 23 22 24 26 25 26 27 30 35 37 35 37 43 48 48 47 46 49 52 51 46 44 41 39 38 38 40 42 42 42 40 39 40 41 41 40 37 62 87 80 76
17 16 17 18 19 20 20 25 22 22 24 26 25 27 29 30 36 39 38 40 44 48 49 48 49 50 51 51 48 46 45 44 44 47 49 50 49 45 44 42 39 40 40 36 36 58 81 82 68
14 16 17 18 19 21 21 24 25 25 26 27 27 28 29 31 35 41 41 42 46 50 50 49 50 50 50 50 47 46 47 49 50 51 53 53 52 51 47 44 40 38 37 33 33 51 77 81 69
14 15 16 19 19 19 22 25 26 26 29 32 31 31 32 33 35 42 43 44 47 49 50 50 51 52 50 47 46 47 47 49 51 53 56 57 56 57 57 49 43 38 35 32 30 39 73 86 93
18 18 19 19 22 21 24 26 26 29 32 33 32 33 35 34 37 44 46 45 47 48 49 49 49 50 49 50 50 47 47 52 57 59 61 62 62 64 60 50 41 38 35 32 28 33 62 82 90
22 23 22 22 22 23 25 27 28 30 33 35 34 35 37 36 39 46 48 47 49 47 48 49 50 52 52 50 49 49 52 54 60 62 63 65 66 65 57 48 41 37 35 33 29 29 51 76 82
24 25 24 24 24 23 23 26 25 28 33 34 36 39 41 42 45 49 48 51 52 50 48 48 51 52 51 53 52 53 57 59 61 62 65 66 69 65 56 49 44 41 36 34 30 29 46 72 82
27 27 27 26 25 25 26 26 27 29 30 34 38 43 44 47 49 50 49 54 53 51 50 49 51 52 52 53 53 55 61 61 63 64 65 66 71 65 54 47 47 47 38 36 33 33 38 63 73
31 28 28 27 27 29 29 29 27 30 30 32 36 42 44 49 50 51 53 56 53 53 52 51 52 51 54 56 55 58 63 63 65 63 67 71 68 59 48 44 44 48 42 36 36 36 35 52 76
31 31 31 30 31 31 32 34 31 30 31 34 38 44 47 50 53 55 55 56 55 52 51 52 52 52 57 59 59 62 65 67 68 67 70 71 63 51 46 44 42 42 44 38 37 36 40 41 61
30 30 31 34 35 36 34 35 33 27 31 36 41 45 50 53 55 55 58 57 58 56 53 54 52 54 60 60 60 65 66 69 69 72 73 68 57 46 45 41 38 36 43 40 36 35 43 41 51
31 31 31 33 34 35 34 35 34 33 38 38 46 47 53 55 54 56 59 57 58 56 55 54 53 57 61 60 61 66 67 70 71 74 74 63 53 43 42 38 34 31 39 39 37 34 42 46 44
30 30 30 32 34 34 35 39 37 39 41 46 47 53 57 57 56 57 58 59 57 55 56 56 57 59 61 62 63 67 68 70 73 75 75 60 50 42 40 37 32 29 37 38 38 35 38 48 44
27 28 30 31 35 37 38 45 41 45 45 49 53 56 57 58 58 59 59 59 57 58 59 58 58 60 61 62 65 69 72 73 74 75 74 58 46 38 36 34 33 30 36 37 38 36 34 45 46
32 31 32 36 40 42 44 46 46 43 48 54 56 58 58 58 59 61 60 60 60 60 59 59 60 62 63 65 67 70 73 76 75 75 72 54 43 35 30 32 31 28 37 34 39 37 34 42 49
Wind_Direction
53 32 5 356 341 328 0 324 324 317 326 330 341 339 343 345 343 333 328 324 319 317 313 311 309 310 308 304 306 306 305 303 299 301 304 307 303 299 286 266 249 242 247 243 238 239 246 252 253
23 15 348 338 328 329 332 322 312 317 319 325 334 337 339 341 335 328 325 322 320 316 314 314 312 310 307 300 301 304 304 302 298 298 299 301 307 303 292 277 247 239 242 240 236 236 239 253 252
321 324 329 336 326 319 320 310 308 311 318 325 331 328 335 332 327 324 324 322 319 315 314 315 316 315 309 300 298 300 302 304 299 294 295 299 308 306 302 290 251 234 232 238 231 234 232 243 252
286 302 323 320 323 309 316 311 311 317 324 331 328 324 326 327 324 323 325 326 323 321 320 320 321 318 309 302 301 300 299 301 302 295 291 303 308 298 313 300 263 237 229 231 229 225 228 234 260
275 292 303 300 316 311 309 304 303 316 334 333 325 322 325 320 318 320 326 326 328 327 328 326 327 319 311 304 299 301 302 303 303 295 295 300 303 299 307 313 278 239 231 227 230 221 225 225 233
265 280 291 295 298 305 300 296 300 318 328 328 322 317 320 314 319 324 323 326 328 328 329 330 330 322 314 308 304 303 305 304 301 295 292 301 303 302 303 310 302 246 229 227 225 226 219 224 241
271 275 285 288 287 294 292 286 290 304 318 330 321 315 316 318 317 322 323 326 326 328 332 333 334 327 318 310 308 308 307 303 302 298 293 297 302 304 303 305 308 272 227 229 224 223 216 223 226
273 276 279 276 277 283 282 274 281 301 319 322 319 317 313 314 320 322 326 326 329 330 331 332 332 329 319 310 309 308 306 308 304 300 298 298 309 307 302 307 310 287 237 225 226 224 216 217 217
276 276 274 271 271 277 279 275 283 303 314 313 316 321 312 312 315 321 330 330 328 328 329 328 330 326 320 314 310 310 307 308 305 303 300 301 305 307 305 306 314 293 248 223 225 222 217 214 215
275 277 275 271 270 274 277 277 285 298 305 308 314 316 312 310 311 316 326 327 326 327 326 326 328 326 320 313 309 307 307 306 304 301 301 304 305 304 306 305 312 295 262 230 222 221 221 215 213
275 276 277 271 267 271 275 277 283 293 302 307 309 311 309 309 310 312 318 320 325 326 324 326 325 324 322 317 315 311 305 305 306 298 298 303 305 305 302 305 312 287 264 248 226 219 214 219 211
274 275 273 269 267 271 274 279 286 290 300 303 306 306 309 309 310 313 315 317 316 324 323 324 321 322 324 319 314 311 306 309 310 307 305 302 303 305 303 305 304 293 265 248 244 226 219 215 212
272 272 269 269 268 269 273 275 280 289 298 299 302 307 307 306 311 316 315 317 317 313 319 319 319 321 323 320 316 311 310 313 318 320 322 318 310 305 304 302 300 310 277 274 244 225 217 216 213
272 274 273 271 269 268 272 274 279 290 294 295 305 305 303 307 312 315 314 316 315 316 315 317 318 319 323 319 316 312 311 314 316 319 321 322 321 314 307 304 306 308 288 289 252 226 214 215 214
271 271 271 270 267 267 269 277 281 290 292 296 302 301 301 310 316 315 313 311 314 311 315 317 318 318 321 321 316 312 311 312 314 317 319 320 319 317 310 307 305 306 299 295 270 222 211 211 204
275 276 275 271 266 266 268 277 286 290 292 297 298 297 299 311 315 315 310 311 316 317 314 309 314 317 321 321 317 313 310 309 312 313 316 317 317 316 312 309 306 304 308 297 283 216 210 207 205
279 277 273 268 269 272 275 278 285 286 290 296 294 293 295 311 313 311 309 307 309 310 310 308 309 315 320 321 319 314 312 311 313 315 317 317 316 314 310 308 306 304 311 296 287 214 211 206 209
280 279 275 270 272 277 278 279 286 290 300 300 293 292 297 305 309 312 311 309 309 308 309 310 311 313 316 320 318 316 315 317 317 318 318 316 315 314 312 306 302 300 304 293 290 222 208 204 196
289 283 279 278 274 272 275 279 287 290 295 294 287 293 297 301 306 311 311 308 309 310 310 312 313 314 315 319 317 316 318 320 319 317 315 315 313 311 311 306 300 295 293 294 290 237 211 204 207
292 291 285 280 279 276 275 280 283 286 287 289 285 289 298 300 304 308 311 307 307 310 310 310 312 313 314 317 317 315 319 321 322 322 319 314 312 311 310 304 292 287 283 291 278 248 222 207 214
287 285 284 283 279 280 281 283 286 284 286 287 285 287 295 298 304 307 309 306 307 309 308 308 308 310 312 314 313 313 317 320 321 319 314 311 309 310 307 296 279 271 272 276 263 257 224 214 208
292 290 290 291 288 286 288 289 287 286 287 285 283 285 292 299 304 307 311 308 308 309 307 306 307 308 311 315 313 314 316 316 316 315 313 313 310 310 302 289 269 258 258 263 261 252 227 219 215
297 294 293 294 293 291 292 293 299 293 291 288 286 286 292 299 303 308 310 307 307 309 306 305 307 308 311 314 312 313 313 314 316 314 316 314 312 309 300 288 270 258 251 254 261 241 234 222 220
304 299 297 296 295 298 302 302 302 298 299 294 288 291 296 299 303 308 307 306 308 310 307 306 310 310 313 314 311 313 314 315 317 315 316 313 313 307 294 284 275 264 253 248 252 240 234 224 222
305 303 301 299 300 301 304 302 303 306 307 298 299 298 301 302 306 310 307 306 306 308 305 307 309 310 313 312 310 312 316 316 317 315 318 315 313 303 290 285 277 269 252 244 244 244 232 233 223
311 306 302 300 299 299 305 307 308 314 303 300 299 299 301 307 309 309 305 306 306 307 306 307 309 310 311 310 309 314 316 317 318 318 320 319 314 301 292 283 277 267 249 241 240 245 230 232 228
309 305 303 300 297 300 303 307 309 312 304 302 297 300 304 306 308 304 303 305 306 304 304 307 307 308 309 309 309 313 315 317 318 319 321 318 313 299 291 281 270 259 244 240 237 243 232 226 227
308 309 310 306 305 306 308 305 313 306 304 300 301 305 305 306 304 301 303 304 303 302 304 305 304 306 307 308 309 311 314 317 318 319 322 315 310 296 286 282 257 247 239 236 235 243 236 224 224
309 310 309 306 302 302 305 303 313 308 305 300 301 300 302 303 301 301 302 302 302 301 302 301 300 303 306 307 308 311 314 316 318 319 321 314 308 292 285 277 253 235 232 236 231 239 242 226 222
308 308 303 302 304 303 304 309 309 301 298 297 298 302 304 299 299 299 300 299 298 298 298 298 298 302 304 306 307 310 312 314 316 319 320 312 306 288 276 275 246 233 228 238 227 238 240 228 220